FENGYUN 1C DEB, 29809

Orbit data source: Space-Track

FENGYUN 1C DEB, 29809 is space debris in SSO originally from a launch on Mon, 10 May 1999 UTC launched from the Taiyaun Space Center, China (TSC). Fengyun 1C debris stems from the Chinese weather satellite Fengyun-1C, which was intentionally destroyed by a Chinese anti-satellite missile in 2007. This event dramatically increased the amount of space debris, with thousands of trackable fragments posing hazards to satellites and human spaceflight. The Fengyun 1C debris cloud has become a focal point in discussions about space sustainability and the need for international regulations to prevent the creation of new debris.

Loading next visibility...
Identifier
29809, 1999-025DB
Orbit
SSO
Country
Flag of CNCN / PRC
Related business
Manufacturer
Unknown
Mission
Spacecraft
Bus & Motor
Unknown
Mass
Unknown
Launch date (UTC)
1999-05-10 (27 years ago)
Launch vehicle
Unknown
Launch site
Taiyaun Space Center, China (TSC)
Object type
Payload
Rocket body
Debris
Shape & HBR
Unknown shape, 0.1 m
Radar Cross Section
Small (<0.1 m²)

Expand to show TLE details & history
Last TLE update: 19 hours ago

TLE from 19 hours ago
0 FENGYUN 1C DEB
1 29809U 99025DB  25340.91369034  .00002615  00000-0  68023-3 0  9998
2 29809  98.8594 304.1896 0116492   7.4220  60.0642 14.46563622993831
Epoch: 2025-12-06T21:55Z
TLE epoch observation values (Epoch: 2025-12-06T21:55:42.845Z)
Latitude
67.05187°
Longitude
-122.15208°
Altitude
707.815 km
Speed
7.53 km/s
True Right ascension
18h 50m 50s
True Declination
66° 55' 38"
Sunlit
Object was in daylight at epoch
Visualization orbit readout
Latitude
Unknown
Longitude
Unknown
Altitude
Unknown
Speed
Unknown
Apparent Right ascension
Unknown
Apparent Declination
Unknown
Sunlit
N/A
Visualization observer readout
Local Sidereal Time
15:18:00
Azimuth
Unknown
Elevation
Unknown
Doppler factor
Unknown
Orbital elements
Apogee altitude
816.875 km
Perigee altitude
651.173 km
Semi-major axis
7,112.161 km
Eccentricity
0.01165
Inclination
98.8594°
RAAN
304.1896°
Arg. of periapsis
7.422°
True anomaly
61.22939°
Mean anomaly
60.0642°
Eccentric anomaly
60.64595°
Mean motion
3.6186 °/min
Orbital period
99.49 mins
BSTAR
0.00068023
Loading maneuver chart data...
Computing Atmospheric mass density...

Documentation

Showing up to 5 results
|